Regional Weather Roundup
Issued by NWS Charleston, SC

Home | Current Version | Previous Version | Text Only | Print | Product List | Glossary On
Versions: 1 2 3 4 5 6 7 8 9 10 11 12 13 14 15 16 17 18 19 20 21 22 23 24 25 26 27 28 29 30 31 32 33 34 35 36 37 38 39 40 41 42 43 44 45 46 47 48 49 50
000
ASUS42 KCHS 291713
RWRCHS

REGIONAL WEATHER ROUNDUP
NATIONAL WEATHER SERVICE CHARLESTON SC
100 PM EDT SUN MAY 29 2016

NOTE: "FAIR" INDICATES FEW OR NO CLOUDS BELOW 12,000 FEET WITH NO
SIGNIFICANT WEATHER AND/OR OBSTRUCTIONS TO VISIBILITY.

NOT ALL STATIONS ARE QUALITY CONTROLLED. USE DATA WITH CAUTION...
ESPECIALLY DEWPOINT OBSERVATIONS.

SCZ027-030-031-034>040-042>050-291800-
...SOUTHEAST SOUTH CAROLINA...

CITY           SKY/WX    TMP DP  RH WIND       PRES   REMARKS
N CHARLESTON   LGT RAIN  75  70  84 S13       29.89S
WATERFRONT PRK   N/A     76  73  90 S7        29.88F
MOUNT PLEASANT FAIR      77  73  88 SE10G17   29.91S
JOHNS ISLAND   CLOUDY    75  72  88 SW9       29.90F
PINOPOLIS        N/A     81  73  78 SE7       29.82S
MONCKS CORNER  CLOUDY    77  70  78 SE9G16    29.89S
SUMMERVILLE    CLOUDY    72  72 100 E8G17     29.89R FOG
BEAUFORT MCAS  CLOUDY    71  67  87 W16G26    29.94F
BEAUFORT ARPT  CLOUDY    72  68  88 W16G25    29.94F
HILTON HEAD IS CLOUDY    70  66  88 W12G26    29.97F
WALTERBORO     TSTM      72  72 100 W16G24    29.85F
ALLENDALE      RAIN      66  66 100 VRB6G18   29.96F VSB 3/4

...SOUTHERN MIDLANDS AND PEE DEE...

CITY           SKY/WX    TMP DP  RH WIND       PRES   REMARKS
GEORGETOWN     CLOUDY    77  72  83 SE15      29.95F
KINGSTREE      HVY RAIN  79  72  78 E8        29.93F
ORANGEBURG     LGT RAIN  70  68  93 N13G26    29.93F
BARNWELL       DRIZZLE   70  70 100 NW20G26   29.99F
AIKEN          LGT RAIN  68  63  83 N16G23    30.08F
MANNING        LGT RAIN  77  73  88 E9        29.91F
COLUMBIA       LGT RAIN  68  64  87 N12G23    30.00F
SUMTER         CLOUDY    74  70  87 N17G23    29.92F
FLORENCE       PTSUNNY   84  73  69 NE13      29.97F HX  90
MYRTLE BEACH   LGT RAIN  79  68  69 SE12      30.00S FOG
N MYRTLE BEACH MOSUNNY   80  73  79 SE9       29.99F

$$

GAZ063-065-086>088-099>101-113>116-118-119-134>141-150-291800-
...SOUTHEAST GEORGIA...

CITY           SKY/WX    TMP DP  RH WIND       PRES   REMARKS
SAVANNAH ARPT  LGT RAIN  70  66  87 NW20G33   29.99F
HUNTER AAF     DRIZZLE   70  70 100 W13G21    29.98F
FORT STEWART   DRIZZLE   69  65  87 NW15G24   30.04F
STATESBORO     RAIN      65  64  98 NW16G22   30.05F
SYLVANIA       CLOUDY    67  65  91 N14G22    30.05S
CLAXTON        RAIN      67  65  94 W12G22    30.08S

...CSRA...CENTRAL AND FAR SOUTHEAST GEORGIA...

CITY           SKY/WX    TMP DP  RH WIND       PRES   REMARKS
THOMSON        CLOUDY    69  68  96 N10G16    30.16F
AUGUSTA-BUSH   CLOUDY    68  63  84 NW15      30.06F
AUGUSTA-DANIEL CLOUDY    68  62  81 NW14G28   30.08F
SWAINSBORO     LGT RAIN  68  64  88 N6G16     30.12S
VIDALIA        PTSUNNY   75  63  64 N9G16     30.11R
EASTMAN        CLOUDY    82  66  58 NE7       30.14S
HAZLEHURST     FAIR      80  61  52 N12G20    30.10S
ALMA           MOSUNNY   83  62  49 N13G20    30.09F
WAYCROSS       CLOUDY    82  64  54 N9        30.09S
JESUP          FAIR      73  59  60 N14G22    30.08S
BAXLEY         FAIR      79  63  57 N14G23    30.09S
BRUNSWICK      PTSUNNY   86  68  54 NW12G24   30.06S
SAINT SIMONS   MOSUNNY   82  64  54 NW15G28   30.04F

$$

SCZ027-028-034-036>038-045-046-048>050-GAZ119-141-291800-
...LAKE AND SUPPLEMENTAL COASTAL OBSERVATIONS...

STATION/POSITION TIME  TEMP    WIND        PRES    WAVE   SWELL
                       AIR SEA DIR/SP/G            HT/PER HT/PER/DIR
                 (UTC) (F)     (DEG/KT/KT) (MB)    (FT/S) (FT/S/D)
WINYAH BAY       1545   77     150/ 12     1014.0
LAKE MURRAY      1600   66     360/  6/ 13 1017.9S
ACE BASIN NERRS  NOT AVBL
FORT PULASKI     1600   70 76  300/ 22/ 26 1015.9R
SAPELO ISLAND    1600   79     310/ 20     1017.0F

$$

ANZ835-935-AMZ111-154-330-350-352-354-370-450-454-472-291800-
...C-MAN AND BUOY OBSERVATIONS...

STATION/POSITION TIME  TEMP    WIND        PRES    WAVE   SWELL
                       AIR SEA DIR/SP/G            HT/PER HT/PER/DIR
                 (UTC) (F)     (DEG/KT/KT) (MB)    (FT/S) (FT/S/D)
BUOY 41004       1650   74 77  200/ 19/ 23 1013.8S   6/ 8   3/ 8
BUOY 41008       1650   75 76  290/ 21/ 25 1016.2R   5/ 5   2/320/12
FOLLY BEACH CMAN 1600   75     190/ 10/ 12 1013.2R
CAPERS NEARSHORE 1608   73 76  190/ 14/ 17 1013.3R
FRIPP NEARSHORE  1608   70 75  300/ 21/ 27 1013.4R


STATION/POSITION TIME  TEMP    WIND        PRES    WAVE   SWELL
                       AIR SEA DIR/SP/G            HT/PER HT/PER/DIR
                 (UTC) (F)     (DEG/KT/KT) (MB)    (FT/S) (FT/S/D)
5E ST. MARYS GA  1601      78                N/A     3/ 8
FRYING PAN BUOY  1600   79 78  150/ 16/ 19 1016.3R
BUOY 41025       1650   79 75  160/ 16/ 17 1019.1F   5/ 7   2/140/ 8
CAPE LOOKOUT NC  1600   76     140/ 12/ 13 1018.4R
BUOY 41002       1650   76 76  130/ 14/ 16 1019.3S   4/ 7   2/100/ 7
BUOY 41010       1620   79 79  300/  6/  8 1018.8R
ST AUGUSTINE FL  1700   84 80  290/ 10/ 15 1018.9F


$$



USA.gov is the U.S. government's official web portal to all federal, state and local government web resources and services.